EW3084 Weather Reports


Display with metric or nautical units.
time (UTC)temp
F
wind
direction
speed
MPH
gust
MPH
rain 1hr
in
rain 24hr
in
rain mn
in
humidity
%
barometer
mb
20260904235615 50 0 0.0 0.0 0.00 0.45 0.00 100
20260904234503 50 0 0.0 0.0 0.00 0.45 0.00 100
20260904233603 50 0 0.0 0.0 0.00 0.45 0.00 100
20260904232703 50 0 0.0 0.0 0.00 0.45 0.00 100
20260904231803 50 0 0.0 0.0 0.00 0.45 0.00 100
20260904230903 50 0 0.0 0.0 0.00 0.45 0.00 100
20260904230003 50 0 0.0 0.0 0.00 0.45 0.00 100
20260904225403 50 0 0.0 0.0 0.00 0.45 0.00 100
20260904224503 50 0 0.0 0.0 0.00 0.45 0.00 100
20260904223603 50 0 0.0 0.0 0.00 0.45 0.00 100
20260904222703 50 0 0.0 0.0 0.00 0.45 0.00 100
20260904221803 50 0 0.0 0.0 0.00 0.45 0.00 100
20260904220903 50 0 0.0 0.0 0.00 0.45 0.00 100
20260904220219 50 0 0.0 0.0 0.00 0.45 0.00 100
20260904215403 50 303 0.0 2.0 0.00 0.45 0.45 100
20260904214503 50 0 0.0 0.0 0.00 0.45 0.45 100
20260904213817 50 0 0.0 0.0 0.00 0.45 0.45 100
20260904212917 50 0 0.0 0.0 0.00 0.45 0.45 100
20260904211803 50 0 0.0 0.0 0.00 0.45 0.45 100
20260904210903 50 0 0.0 0.0 0.00 0.45 0.45 100
20260904210219 50 349 0.0 1.0 0.00 0.45 0.45 100
20260904205618 50 352 0.0 2.0 0.00 0.45 0.45 100
20260904204503 51 349 0.0 3.0 0.00 0.45 0.45 100
20260904203603 51 329 0.0 2.0 0.00 0.45 0.45 100
20260904202703 51 0 0.0 0.0 0.00 0.45 0.45 100
20260904201803 51 335 0.0 1.0 0.00 0.45 0.45 100
20260904201119 51 335 0.0 2.0 0.00 0.45 0.45 100
20260904200003 51 335 0.0 2.0 0.00 0.45 0.45 100
20260904195403 51 332 0.0 4.0 0.00 0.45 0.45 100
20260904194717 51 336 0.0 4.0 0.00 0.45 0.45 100
20260904193816 51 1 0.0 3.0 0.00 0.45 0.45 100
20260904192916 52 1 0.0 3.0 0.00 0.45 0.45 100
20260904191803 52 24 1.0 3.0 0.00 0.45 0.45 100
20260904190903 52 96 0.0 3.0 0.00 0.45 0.45 100
20260904190218 52 0 0.0 0.0 0.00 0.45 0.45 100
20260904185617 52 96 0.0 1.0 0.00 0.45 0.45 100
20260904184717 52 96 0.0 1.0 0.00 0.45 0.45 100
20260904183816 52 96 0.0 1.0 0.00 0.45 0.45 100
20260904182703 52 96 0.0 1.0 0.01 0.45 0.45 100
20260904181803 52 96 0.0 1.0 0.02 0.45 0.45 100
20260904180903 52 0 0.0 0.0 0.02 0.45 0.45 100
20260904180003 52 0 0.0 0.0 0.02 0.45 0.45 100
20260904175617 52 0 0.0 0.0 0.03 0.45 0.45 100
20260904174503 52 0 0.0 0.0 0.06 0.45 0.45 100
20260904173603 52 103 0.0 2.0 0.10 0.45 0.45 100
20260904172703 52 0 0.0 0.0 0.16 0.44 0.44 100
20260904171803 53 323 0.0 1.0 0.20 0.43 0.43 100
20260904170903 53 318 0.0 1.0 0.24 0.43 0.43 100
20260904170003 52 328 0.0 2.0 0.26 0.43 0.43 100
20260904165403 53 11 0.0 1.0 0.26 0.42 0.42 100
20260904164716 53 0 0.0 0.0 0.27 0.40 0.40 100
20260904163603 53 338 0.0 3.0 0.24 0.35 0.35 100
20260904162703 53 347 0.0 1.0 0.20 0.28 0.28 100
20260904161803 53 345 0.0 3.0 0.16 0.24 0.24 100
20260904160903 54 350 0.0 6.0 0.12 0.20 0.20 100
20260904160003 54 342 0.0 3.0 0.09 0.17 0.17 100
20260904155617 54 341 0.0 3.0 0.08 0.16 0.16 100
20260904154503 54 336 0.0 4.0 0.05 0.13 0.13 100
20260904153603 55 321 0.0 3.0 0.02 0.10 0.10 100
20260904152703 55 343 0.0 2.0 0.00 0.08 0.08 100
20260904151803 55 340 0.0 3.0 0.00 0.08 0.08 100
20260904150903 56 358 0.0 5.0 0.00 0.08 0.08 100
20260904150003 56 336 1.0 3.0 0.00 0.08 0.08 100
20260904145403 56 341 0.0 3.0 0.00 0.08 0.08 100
20260904144503 56 352 0.0 3.0 0.00 0.08 0.08 100
20260904143603 56 341 0.0 3.0 0.00 0.08 0.08 100
20260904142703 56 322 0.0 2.0 0.01 0.08 0.08 100
20260904141803 56 319 0.0 3.0 0.03 0.08 0.08 100
20260904140903 56 0 0.0 0.0 0.05 0.08 0.08 100
20260904140003 56 0 0.0 0.0 0.06 0.08 0.08 100
20260904135616 56 0 0.0 0.0 0.06 0.08 0.08 100
20260904134719 56 243 0.0 1.0 0.06 0.08 0.08 100
20260904133818 55 243 0.0 1.0 0.06 0.08 0.08 100
20260904132918 55 234 1.0 3.0 0.06 0.08 0.08 98
20260904131803 55 65 0.0 3.0 0.03 0.05 0.05 93
20260904130903 56 50 0.0 2.0 0.02 0.03 0.03 91
20260904130003 56 77 0.0 4.0 0.01 0.02 0.02 90
20260904125403 56 132 0.0 2.0 0.01 0.02 0.02 88
20260904124503 56 0 0.0 0.0 0.01 0.02 0.02 89
20260904123818 57 132 0.0 1.0 0.01 0.02 0.02 87
20260904122703 57 175 0.0 6.0 0.01 0.02 0.02 84
20260904121803 57 95 0.0 6.0 0.00 0.02 0.02 81
20260904121116 57 56 1.0 3.0 0.00 0.02 0.02 80
20260904120003 57 56 0.0 2.0 0.00 0.02 0.02 82
20260904115403 57 56 0.0 2.0 0.00 0.02 0.02 80
20260904114503 57 56 0.0 1.0 0.00 0.02 0.02 80
20260904113603 57 31 1.0 3.0 0.00 0.02 0.02 82
20260904112703 56 126 0.0 2.0 0.00 0.02 0.02 84
20260904112016 56 121 0.0 2.0 0.00 0.02 0.02 84
20260904111116 56 142 0.0 2.0 0.00 0.02 0.02 84
20260904110003 56 165 0.0 2.0 0.00 0.02 0.02 84
20260904105403 56 165 0.0 2.0 0.00 0.02 0.02 84
20260904104503 56 164 0.0 3.0 0.00 0.02 0.02 85
20260904103603 56 132 0.0 3.0 0.00 0.02 0.02 83
20260904102703 56 172 0.0 3.0 0.00 0.02 0.02 84
20260904101803 56 134 1.0 3.0 0.00 0.02 0.02 85
20260904100903 56 170 0.0 3.0 0.00 0.02 0.02 84
20260904100003 56 167 1.0 4.0 0.00 0.02 0.02 84
20260904095403 56 163 1.0 4.0 0.00 0.02 0.02 85
20260904094503 56 163 1.0 4.0 0.00 0.02 0.02 85
20260904093603 55 158 1.0 4.0 0.00 0.02 0.02 86
20260904092703 55 158 1.0 5.0 0.00 0.02 0.02 85
20260904091803 55 150 0.0 4.0 0.00 0.02 0.02 89
20260904090903 55 146 1.0 5.0 0.00 0.02 0.02 92
20260904090003 54 117 0.0 2.0 0.00 0.02 0.02 93
20260904085403 54 171 0.0 2.0 0.00 0.02 0.02 100
20260904084503 54 119 1.0 3.0 0.00 0.02 0.02 100
20260904083603 53 76 1.0 3.0 0.00 0.02 0.02 100
20260904082703 53 359 0.0 2.0 0.00 0.02 0.02 100
20260904081803 52 359 0.0 1.0 0.00 0.02 0.02 100
20260904080903 52 0 0.0 0.0 0.00 0.02 0.02 100
20260904080003 52 0 0.0 0.0 0.00 0.02 0.02 100
20260904075403 51 359 0.0 2.0 0.01 0.02 0.02 100
20260904074503 51 359 0.0 2.0 0.02 0.02 0.02 100
20260904073603 51 331 0.0 2.0 0.02 0.02 0.02 100
20260904072703 50 305 0.0 1.0 0.02 0.02 0.02 100
20260904071803 50 0 0.0 0.0 0.02 0.02 0.02 100
20260904070903 49 305 0.0 1.0 0.02 0.02 0.02 100
20260904070003 49 0 0.0 0.0 0.02 0.02 0.02 100
20260904065403 49 305 0.0 1.0 0.01 0.01 0.01 100
20260904064716 48 0 0.0 0.0 0.00 0.00 0.00 100
20260904063603 48 0 0.0 0.0 0.00 0.00 0.00 100
20260904062703 48 0 0.0 0.0 0.00 0.00 0.00 100
20260904061803 48 0 0.0 0.0 0.00 0.00 0.00 100
20260904060903 48 0 0.0 0.0 0.00 0.00 0.00 100
20260904060003 48 0 0.0 0.0 0.00 0.00 0.00 100
20260904055403 47 0 0.0 0.0 0.00 0.00 0.00 100
20260904054503 47 305 0.0 1.0 0.00 0.00 0.00 100
20260904053603 47 0 0.0 0.0 0.00 0.00 0.00 100
20260904052703 46 0 0.0 0.0 0.00 0.00 0.00 100
20260904051803 46 0 0.0 0.0 0.00 0.00 0.00 100
20260904050903 46 0 0.0 0.0 0.00 0.00 0.00 100
20260904050217 46 0 0.0 0.0 0.00 0.00 0.00 100
20260904045403 45 0 0.0 0.0 0.00 0.00 0.00 100
20260904044716 45 0 0.0 0.0 0.00 0.00 0.00 100
20260904043603 45 0 0.0 0.0 0.00 0.00 0.00 100
20260904042703 45 0 0.0 0.0 0.00 0.00 0.00 100
20260904041803 44 0 0.0 0.0 0.00 0.00 0.00 100
20260904040903 44 0 0.0 0.0 0.00 0.00 0.00 100
20260904040003 44 0 0.0 0.0 0.00 0.00 0.00 100
20260904035616 44 0 0.0 0.0 0.00 0.00 0.00 100
20260904034503 44 0 0.0 0.0 0.00 0.00 0.00 100
20260904033603 44 0 0.0 0.0 0.00 0.00 0.00 100
20260904032918 44 0 0.0 0.0 0.00 0.00 0.00 100
20260904031803 44 305 0.0 2.0 0.00 0.00 0.00 100
20260904030903 44 305 0.0 2.0 0.00 0.00 0.00 100
20260904030003 43 305 0.0 2.0 0.00 0.00 0.00 100
20260904025403 43 0 0.0 0.0 0.00 0.00 0.00 100
20260904024719 43 0 0.0 0.0 0.00 0.00 0.00 100
20260904023603 43 0 0.0 0.0 0.00 0.00 0.00 100
20260904022703 43 0 0.0 0.0 0.00 0.00 0.00 100
20260904021803 43 0 0.0 0.0 0.00 0.00 0.00 100
20260904020903 43 0 0.0 0.0 0.00 0.00 0.00 100
20260904020003 43 0 0.0 0.0 0.00 0.00 0.00 100
20260904015403 43 0 0.0 0.0 0.00 0.00 0.00 100
20260904014503 43 0 0.0 0.0 0.00 0.00 0.00 100
20260904013603 44 0 0.0 0.0 0.00 0.00 0.00 100
20260904012917 44 0 0.0 0.0 0.00 0.00 0.00 100
20260904011803 45 0 0.0 0.0 0.00 0.00 0.00 100
20260904010903 45 0 0.0 0.0 0.00 0.00 0.00 100
20260904010003 45 0 0.0 0.0 0.00 0.00 0.00 100
20260904005403 45 0 0.0 0.0 0.00 0.00 0.00 100
20260904004503 45 0 0.0 0.0 0.00 0.00 0.00 100
20260904003603 46 0 0.0 0.0 0.00 0.00 0.00 100
20260904002703 46 0 0.0 0.0 0.00 0.00 0.00 100
20260904001803 47 0 0.0 0.0 0.00 0.00 0.00 100
20260904000903 47 305 0.0 1.0 0.00 0.00 0.00 100
20260904000219 47 305 0.0 1.0 0.00 0.00 0.00 100